Buffalo, WY

5:47 AM MDT on July 22, 2017 (GMT -0600)
Johnson County

Weather History for KBYG - November, 2013

Change the Weather History Date:

Wednesday, November 13, 2013

  Actual Average Record
Temperature  
Mean Temperature 50 °F 35 °F  
Max Temperature 59 °F 46 °F 70 °F (1999)
Min Temperature 41 °F 24 °F -13 °F (2014)
Degree Days  
Heating Degree Days 15 30  
Month to date heating degree days 344 350  
Since 1 July heating degree days 1183 1256  
Cooling Degree Days 0 0  
Month to date cooling degree days 0 0  
Year to date cooling degree days 709 492  
Moisture  
Dew Point 27 °F    
Average Humidity 43    
Maximum Humidity 62    
Minimum Humidity 24    
Precipitation  
Precipitation T in 0.02 in 0.45 in (2008)
Month to date precipitation 0.12 0.22  
Year to date precipitation 10.13 12.73  
Sea Level Pressure  
Sea Level Pressure 30.06 in    
Wind  
Wind Speed 9 mph (NW)    
Max Wind Speed 35 mph    
Max Gust Speed 49 mph    
Visibility 10 miles    
Events      
T = Trace of Precipitation, MM = Missing Value Source: NWS Daily Summary

Daily Weather History Graph

Daily Weather History Graph

Search for Another Location

Airport or City:

Trip Planner

Search our weather history database for the weather conditions in past years. The results will help you decide how hot, cold, wet, or windy it might be!

Date:

Astronomy

Nov. 13, 2013 Rise Set
Actual Time 7:00 AM MST 4:41 PM MST
Civil Twilight 6:29 AM MST 5:12 PM MST
Nautical Twilight 5:54 AM MST 5:47 PM MST
Astronomical Twilight 5:20 AM MST 6:21 PM MST
Moon 2:37 PM MST (11/13) 2:48 AM MST (11/13)
Length of Visible Light 10h 43m
Length of Day
9h 40m
Waxing Gibbous, 85% of the Moon is Illuminated
Nov 13
Waxing Gibbous
Nov 17
Full
Nov 25
Last Quarter
Dec 2
New
Dec 9
First Quarter

Hourly Weather History & Observations

Time (MST) Temp. Windchill Dew Point Humidity Pressure Visibility Wind Dir Wind Speed Gust Speed Precip Events Conditions
12:53 AM 54.0 °F - 21.9 °F 29% 30.14 in 10.0 mi WSW 9.2 mph - N/A   Clear
1:53 AM 57.0 °F - 21.0 °F 25% 30.10 in 10.0 mi SW 3.5 mph - N/A   Clear
2:53 AM 52.0 °F - 24.1 °F 34% 30.10 in 10.0 mi WSW 12.7 mph - N/A   Clear
3:53 AM 48.0 °F - 23.0 °F 37% 30.09 in 10.0 mi NW 6.9 mph - N/A   Clear
4:53 AM 50.0 °F - 21.9 °F 33% 30.10 in 10.0 mi Calm Calm - N/A   Clear
5:53 AM 48.0 °F - 26.1 °F 42% 30.12 in 10.0 mi West 9.2 mph - N/A   Clear
6:53 AM 52.0 °F - 25.0 °F 35% 30.09 in 10.0 mi NW 9.2 mph - N/A   Clear
7:53 AM 54.0 °F - 24.1 °F 31% 30.09 in 10.0 mi NW 6.9 mph - N/A   Scattered Clouds
8:53 AM 55.0 °F - 24.1 °F 30% 30.09 in 10.0 mi North 4.6 mph - N/A   Overcast
9:53 AM 53.1 °F - 23.0 °F 31% 30.10 in 10.0 mi East 6.9 mph - N/A   Overcast
10:53 AM 53.1 °F - 25.0 °F 34% 30.08 in 10.0 mi NW 13.8 mph - N/A   Scattered Clouds
11:53 AM 54.0 °F - 27.0 °F 35% 30.04 in 10.0 mi North 5.8 mph - N/A   Scattered Clouds
12:53 PM 57.0 °F - 27.0 °F 32% 30.00 in 10.0 mi North 12.7 mph 20.7 mph N/A   Mostly Cloudy
1:53 PM 55.0 °F - 28.9 °F 37% 29.97 in 10.0 mi NNE 10.4 mph - N/A   Partly Cloudy
2:53 PM 55.0 °F - 30.0 °F 38% 29.99 in 10.0 mi NNE 6.9 mph - N/A   Mostly Cloudy
3:53 PM 51.1 °F - 30.0 °F 44% 30.00 in 10.0 mi Calm Calm - N/A   Scattered Clouds
4:53 PM 48.0 °F - 30.9 °F 52% 30.01 in 10.0 mi NW 3.5 mph - N/A   Mostly Cloudy
5:53 PM 45.0 °F 41.8 °F 32.0 °F 60% 30.04 in 10.0 mi WNW 5.8 mph - N/A   Mostly Cloudy
6:53 PM 46.9 °F - 32.0 °F 56% 30.01 in 10.0 mi North 5.8 mph - N/A   Mostly Cloudy
7:53 PM 45.0 °F 43.5 °F 32.0 °F 60% 30.03 in 10.0 mi NE 3.5 mph - N/A   Mostly Cloudy
8:53 PM 46.9 °F - 30.9 °F 54% 30.02 in 10.0 mi WNW 17.3 mph - 0.00 in   Overcast
9:53 PM 46.0 °F 36.9 °F 27.0 °F 47% 30.05 in 10.0 mi NW 28.8 mph 40.3 mph N/A   Mostly Cloudy
10:53 PM 41.0 °F 30.9 °F 28.9 °F 62% 30.08 in 10.0 mi NNW 24.2 mph 36.8 mph N/A   Mostly Cloudy
11:53 PM 42.1 °F 33.6 °F 24.1 °F 49% 30.07 in 10.0 mi NNW 18.4 mph 28.8 mph N/A   Overcast